Lid_Strength_Index
2 5 7 8 12 14 15 13 11 10 8 7 6 7 8 8 9 12 2 1 1 1 0 -0 -1 -1 -1 -1 -1 -1 -1 -1 -1 -1 -1 -1 -1 -1 -1 -1 -1 -1 -1 -1 -1 -1 -1 -1 -1
2 6 9 11 14 16 14 13 12 11 9 6 6 6 7 9 5 4 4 1 0 0 -0 -0 -1 -1 -1 -1 -1 -1 -1 -1 -1 -1 -1 -1 -1 -1 -1 -1 -1 -1 -1 -1 -1 -1 -1 -1 -1
7 6 11 13 16 15 14 12 11 11 8 7 7 5 6 7 4 4 2 1 0 0 -0 -0 -1 -1 -1 -1 -1 -1 -1 -1 -1 -1 -1 -1 -1 -1 -1 -1 -1 -1 -1 -1 -1 -1 -1 -1 -1
8 10 12 14 16 14 13 11 11 11 10 8 6 7 5 3 3 2 1 1 1 0 -0 -0 -1 -1 -1 -1 -1 -1 -1 -1 -1 -1 -1 -1 -1 -1 -1 -1 -1 -1 -1 -1 -1 -1 -1 -1 -1
11 12 15 16 16 13 11 11 11 11 9 7 6 7 6 5 2 1 1 1 2 1 -0 -0 -0 -1 -1 -1 -1 -1 -1 -1 -1 -1 -1 -1 -1 -1 -1 -1 -1 -1 -1 -1 -1 -1 -1 -1 -1
13 13 15 17 15 12 12 11 11 11 11 10 8 10 8 10 3 2 1 1 1 1 0 -0 -0 -0 -1 -1 -1 -1 -1 -1 -1 -1 -1 -1 -1 -1 -1 -1 -1 -1 -1 -1 -1 -1 -1 -1 -1
14 15 16 16 15 14 12 12 12 13 12 11 9 11 10 9 7 1 1 2 1 1 0 0 -0 -0 -1 -1 -1 -1 -1 -1 -1 -1 -1 -1 -1 -1 -1 -1 -1 -1 -1 -1 -1 -1 -1 -1 -1
14 14 17 16 16 16 13 12 13 12 12 10 9 11 12 9 8 7 1 2 1 1 1 1 0 -0 -0 -0 -1 -1 -1 -1 -0 -1 -1 -1 -1 -1 -1 -0 -1 -1 -1 -1 -1 -1 -1 -1 -1
13 15 16 15 15 15 14 14 12 11 12 11 11 11 10 9 9 6 3 3 2 1 2 1 1 0 0 -0 -0 -1 -1 -1 -1 -1 -1 -0 0 0 -0 -0 -1 -1 -1 -1 -1 -1 -1 -1 -1
13 16 14 12 13 15 14 14 13 12 12 12 11 10 9 9 9 9 7 4 4 3 2 2 1 1 0 -0 -0 -0 -0 -0 -0 -0 0 -0 -0 0 -0 -0 -1 -1 -1 -1 -1 -1 -1 -1 0
14 14 13 11 11 12 12 12 11 12 12 11 11 10 9 8 9 9 8 6 5 3 1 2 2 1 1 1 0 0 -0 0 -0 -0 -0 -0 -0 -0 -0 0 0 0 -0 0 -0 0 0 0 0
13 11 11 11 12 12 13 12 12 11 10 9 9 9 9 9 10 10 10 10 9 3 2 2 1 2 2 1 0 0 0 0 0 0 0 0 1 0 0 -0 0 0 -0 0 0 0 0 0 0
15 13 11 11 11 12 11 12 12 12 10 9 9 8 9 10 10 10 9 10 10 4 2 2 3 3 2 1 1 1 0 0 0 -0 1 1 1 1 1 1 0 0 0 -0 0 0 0 1 1
12 12 12 11 12 13 13 13 13 10 10 9 9 10 10 10 9 10 9 9 8 6 3 2 3 3 3 1 2 1 1 1 1 1 0 -0 0 1 2 1 1 0 0 -0 -0 0 0 1 1
12 14 13 13 14 13 13 14 12 10 10 10 9 9 8 9 9 8 8 8 8 7 4 3 2 2 2 3 2 2 2 2 1 1 0 -0 0 1 1 1 2 1 -0 0 0 0 1 1 2
14 14 16 14 12 12 13 15 11 10 10 10 9 9 9 9 8 8 8 8 8 7 3 5 3 2 2 2 2 2 2 2 2 2 2 1 0 0 1 1 2 1 1 1 1 1 1 1 2
15 17 16 14 12 12 13 14 10 9 9 10 9 10 9 9 8 8 8 8 7 7 7 6 9 9 7 4 3 3 3 2 2 1 1 1 1 0 0 1 1 1 1 1 1 1 1 2 3
17 17 16 16 13 11 14 13 11 9 10 10 10 10 9 9 8 8 7 7 7 6 5 4 4 4 4 5 6 5 4 3 1 1 0 0 0 -0 1 0 1 1 1 1 1 1 1 1 2
14 15 15 13 12 12 13 13 11 11 11 11 10 10 10 9 7 5 4 4 3 3 3 2 3 3 3 3 4 4 4 4 3 3 1 0 0 0 0 1 1 1 1 1 1 1 2 2 3
13 14 15 12 10 12 12 12 11 10 9 9 9 9 9 8 6 5 4 4 4 3 2 3 3 2 2 2 3 3 3 3 2 2 1 1 0 0 0 0 1 1 1 1 1 2 2 3 2
13 14 14 13 11 12 12 13 12 9 8 8 8 7 7 7 6 6 5 5 4 4 3 3 3 2 2 2 2 2 2 2 3 2 2 1 0 0 0 0 1 1 1 1 1 2 2 3 3
14 11 11 11 13 16 12 18 13 11 10 9 9 8 8 7 7 6 6 5 5 4 3 3 2 2 2 2 3 3 3 4 3 3 2 1 0 0 0 0 0 1 1 1 1 1 2 2 3
12 9 11 11 14 15 14 16 14 11 12 10 9 8 8 8 7 7 7 6 6 4 4 4 4 4 3 3 3 4 4 3 2 2 2 1 1 0 0 0 1 1 2 1 2 2 3 3 2
9 11 12 14 15 18 15 15 16 13 11 10 9 8 8 8 7 7 7 6 7 7 6 6 6 6 6 6 5 4 5 4 4 3 3 2 1 1 1 0 1 2 3 1 1 2 1 2 2
11 14 18 19 19 18 14 15 15 11 9 9 9 8 8 8 8 8 8 8 7 7 7 6 6 6 6 6 6 6 6 5 5 4 3 3 3 2 1 1 2 1 1 1 2 3 2 2 2
13 13 18 20 20 18 13 16 14 9 8 8 8 8 8 8 8 8 8 8 8 7 7 6 7 7 6 6 6 6 6 6 6 5 4 4 3 2 1 1 2 3 3 4 2 1 1 2 1
12 14 13 15 16 18 16 14 10 9 9 8 8 8 8 8 8 8 8 8 8 7 7 7 7 7 7 6 7 6 6 6 6 5 5 4 3 1 1 1 1 1 1 3 3 2 2 1 1
11 10 15 16 20 22 17 16 15 12 10 9 9 9 8 7 7 8 8 8 7 7 7 6 6 7 6 6 7 7 6 6 6 6 5 5 4 2 1 1 1 1 1 1 2 2 2 2 2
13 13 14 14 16 20 21 17 12 11 10 10 9 8 8 8 9 9 8 8 8 8 7 7 6 6 6 6 6 6 6 6 6 6 5 5 4 3 2 1 1 1 1 1 2 3 3 3 2
10 12 13 18 17 17 19 17 9 10 10 10 10 9 8 9 9 8 8 8 8 7 7 6 6 6 6 6 6 6 6 6 6 5 5 5 5 4 3 2 1 1 1 2 3 3 2 4 4